Time,TemperatureF,DewpointF,PressureIn,WindDirection,WindDirectionDegrees,WindSpeedMPH,WindSpeedGustMPH,Humidity,HourlyPrecipIn,Conditions,Clouds,dailyrainin,SoftwareType,DateUTC
2013-08-27 00:01:00,66.9,54.8,29.81,NNW,336,0.0,0.0,65,0.00,,,0.00,VWS V14.01,2013-08-27 06:01:00,
2013-08-27 00:06:00,66.6,54.5,29.81,NNW,336,0.0,0.0,65,0.00,,,0.00,VWS V14.01,2013-08-27 06:06:00,
2013-08-27 00:11:00,66.0,54.3,29.81,NNW,335,0.0,0.0,66,0.00,,,0.00,VWS V14.01,2013-08-27 06:11:00,
2013-08-27 00:16:00,65.4,54.2,29.82,NNW,336,0.0,0.0,67,0.00,,,0.00,VWS V14.01,2013-08-27 06:16:00,
2013-08-27 00:21:00,65.4,53.8,29.82,NW,316,0.0,0.0,66,0.00,,,0.00,VWS V14.01,2013-08-27 06:21:00,
2013-08-27 00:26:00,65.4,52.9,29.82,NNW,330,0.0,0.0,64,0.00,,,0.00,VWS V14.01,2013-08-27 06:26:00,
2013-08-27 00:31:00,65.2,53.2,29.82,North,1,0.0,0.0,65,0.00,,,0.00,VWS V14.01,2013-08-27 06:31:00,
2013-08-27 00:36:00,64.8,53.2,29.82,North,1,0.0,0.0,66,0.00,,,0.00,VWS V14.01,2013-08-27 06:36:00,
2013-08-27 00:41:00,64.1,52.9,29.82,North,360,0.0,0.0,67,0.00,,,0.00,VWS V14.01,2013-08-27 06:41:00,
2013-08-27 00:46:00,63.4,52.7,29.82,North,1,0.0,0.0,68,0.00,,,0.00,VWS V14.01,2013-08-27 06:46:00,
2013-08-27 00:51:00,63.0,51.9,29.82,North,1,0.0,0.0,67,0.00,,,0.00,VWS V14.01,2013-08-27 06:51:00,
2013-08-27 00:56:00,63.0,51.9,29.83,North,359,0.0,0.0,67,0.00,,,0.00,VWS V14.01,2013-08-27 06:56:00,
2013-08-27 01:01:00,63.3,51.8,29.83,North,359,0.0,0.0,66,0.00,,,0.00,VWS V14.01,2013-08-27 07:01:00,
2013-08-27 01:06:00,62.9,51.4,29.83,North,360,0.0,0.0,66,0.00,,,0.00,VWS V14.01,2013-08-27 07:06:00,
2013-08-27 01:11:00,62.5,51.4,29.83,North,360,0.0,0.0,67,0.00,,,0.00,VWS V14.01,2013-08-27 07:11:00,
2013-08-27 01:16:00,62.9,51.8,29.83,North,1,0.0,0.0,67,0.00,,,0.00,VWS V14.01,2013-08-27 07:16:00,
2013-08-27 01:21:00,63.3,51.3,29.83,NNW,338,0.0,0.0,65,0.00,,,0.00,VWS V14.01,2013-08-27 07:21:00,
2013-08-27 01:26:00,63.3,51.3,29.83,NNW,340,0.0,0.0,65,0.00,,,0.00,VWS V14.01,2013-08-27 07:26:00,
2013-08-27 01:31:00,63.3,51.3,29.83,North,356,0.0,0.0,65,0.00,,,0.00,VWS V14.01,2013-08-27 07:31:00,
2013-08-27 01:36:00,62.4,50.9,29.83,North,355,0.0,0.0,66,0.00,,,0.00,VWS V14.01,2013-08-27 07:36:00,
2013-08-27 01:41:00,61.5,50.8,29.83,North,355,0.0,0.0,68,0.00,,,0.00,VWS V14.01,2013-08-27 07:41:00,
2013-08-27 01:46:00,61.1,50.9,29.83,North,356,0.0,0.0,69,0.00,,,0.00,VWS V14.01,2013-08-27 07:46:00,
2013-08-27 01:51:00,60.9,50.7,29.83,North,355,0.0,0.0,69,0.00,,,0.00,VWS V14.01,2013-08-27 07:51:00,
2013-08-27 01:56:00,60.8,51.0,29.83,North,354,0.0,0.0,70,0.00,,,0.00,VWS V14.01,2013-08-27 07:56:00,
2013-08-27 02:01:00,60.6,50.4,29.84,North,354,0.0,0.0,69,0.00,,,0.00,VWS V14.01,2013-08-27 08:01:00,
2013-08-27 02:06:00,60.4,50.6,29.83,North,354,0.0,0.0,70,0.00,,,0.00,VWS V14.01,2013-08-27 08:06:00,
2013-08-27 02:11:00,60.2,50.4,29.84,North,355,0.0,0.0,70,0.00,,,0.00,VWS V14.01,2013-08-27 08:11:00,
2013-08-27 02:16:00,59.7,50.3,29.84,North,354,0.0,0.0,71,0.00,,,0.00,VWS V14.01,2013-08-27 08:16:00,
2013-08-27 02:21:00,59.4,50.4,29.84,North,354,0.0,0.0,72,0.00,,,0.00,VWS V14.01,2013-08-27 08:21:00,
2013-08-27 02:25:00,59.7,50.3,29.84,North,354,0.0,0.0,71,0.00,,,0.00,VWS V14.01,2013-08-27 08:25:00,
2013-08-27 02:30:00,59.8,50.0,29.84,North,355,0.0,0.0,70,0.00,,,0.00,VWS V14.01,2013-08-27 08:30:00,
2013-08-27 02:35:00,59.8,50.0,29.84,NNW,336,0.0,0.0,70,0.00,,,0.00,VWS V14.01,2013-08-27 08:35:00,
2013-08-27 02:40:00,60.0,50.2,29.84,NW,324,0.0,0.0,70,0.00,,,0.00,VWS V14.01,2013-08-27 08:40:00,
2013-08-27 02:46:00,60.3,50.1,29.85,NNE,26,0.0,0.0,69,0.00,,,0.00,VWS V14.01,2013-08-27 08:46:00,
2013-08-27 02:51:00,59.0,49.2,29.85,NNE,25,0.0,0.0,70,0.00,,,0.00,VWS V14.01,2013-08-27 08:51:00,
2013-08-27 02:56:00,58.6,50.0,29.85,NNE,25,0.0,0.0,73,0.00,,,0.00,VWS V14.01,2013-08-27 08:56:00,
2013-08-27 03:01:00,58.4,49.8,29.85,NNE,24,0.0,0.0,73,0.00,,,0.00,VWS V14.01,2013-08-27 09:01:00,
2013-08-27 03:05:00,58.2,49.6,29.85,NNE,25,0.0,0.0,73,0.00,,,0.00,VWS V14.01,2013-08-27 09:05:00,
2013-08-27 03:10:00,58.2,49.6,29.85,NNE,25,0.0,0.0,73,0.00,,,0.00,VWS V14.01,2013-08-27 09:10:00,
2013-08-27 03:15:00,58.3,49.7,29.85,NNE,25,0.0,0.0,73,0.00,,,0.00,VWS V14.01,2013-08-27 09:15:00,
2013-08-27 03:20:00,58.6,50.0,29.85,NNE,25,0.0,0.0,73,0.00,,,0.00,VWS V14.01,2013-08-27 09:20:00,
2013-08-27 03:25:00,58.8,49.8,29.85,NNE,25,0.0,0.0,72,0.00,,,0.00,VWS V14.01,2013-08-27 09:25:00,
2013-08-27 03:30:00,58.9,49.9,29.85,NNE,24,0.0,0.0,72,0.00,,,0.00,VWS V14.01,2013-08-27 09:30:00,
2013-08-27 03:35:00,58.9,49.9,29.85,NNE,24,0.0,0.0,72,0.00,,,0.00,VWS V14.01,2013-08-27 09:35:00,
2013-08-27 03:40:00,59.0,50.4,29.85,NNE,25,0.0,0.0,73,0.00,,,0.00,VWS V14.01,2013-08-27 09:40:00,
2013-08-27 03:45:00,58.4,49.4,29.85,NNE,32,0.0,0.0,72,0.00,,,0.00,VWS V14.01,2013-08-27 09:45:00,
2013-08-27 03:50:00,58.0,49.8,29.85,NNE,32,0.0,0.0,74,0.00,,,0.00,VWS V14.01,2013-08-27 09:50:00,
2013-08-27 03:55:00,57.3,49.5,29.85,NNE,32,0.0,0.0,75,0.00,,,0.00,VWS V14.01,2013-08-27 09:55:00,
2013-08-27 04:00:00,57.1,49.3,29.85,NNE,33,0.0,0.0,75,0.00,,,0.00,VWS V14.01,2013-08-27 10:00:00,
2013-08-27 04:05:00,56.9,49.8,29.85,NNE,32,0.0,0.0,77,0.00,,,0.00,VWS V14.01,2013-08-27 10:05:00,
2013-08-27 04:10:00,57.1,50.0,29.86,NNE,32,0.0,0.0,77,0.00,,,0.00,VWS V14.01,2013-08-27 10:10:00,
2013-08-27 04:15:00,57.2,50.4,29.86,NNE,33,0.0,0.0,78,0.00,,,0.00,VWS V14.01,2013-08-27 10:15:00,
2013-08-27 04:20:00,57.4,51.0,29.86,NNE,32,0.0,0.0,79,0.00,,,0.00,VWS V14.01,2013-08-27 10:20:00,
2013-08-27 04:25:00,57.5,51.0,29.86,NNE,32,0.0,0.0,79,0.00,,,0.00,VWS V14.01,2013-08-27 10:25:00,
2013-08-27 04:30:00,57.3,50.2,29.86,NNE,32,0.0,0.0,77,0.00,,,0.00,VWS V14.01,2013-08-27 10:30:00,
2013-08-27 04:35:00,56.9,50.8,29.86,NNE,32,0.0,0.0,80,0.00,,,0.00,VWS V14.01,2013-08-27 10:35:00,
2013-08-27 04:40:00,56.8,50.7,29.86,NNE,33,0.0,0.0,80,0.00,,,0.00,VWS V14.01,2013-08-27 10:40:00,
2013-08-27 04:45:00,56.3,49.9,29.86,NNE,32,0.0,0.0,79,0.00,,,0.00,VWS V14.01,2013-08-27 10:45:00,
2013-08-27 04:50:00,56.2,50.1,29.86,NNE,33,0.0,0.0,80,0.00,,,0.00,VWS V14.01,2013-08-27 10:50:00,
2013-08-27 04:55:00,56.2,49.8,29.87,NNE,32,0.0,0.0,79,0.00,,,0.00,VWS V14.01,2013-08-27 10:55:00,
2013-08-27 05:00:00,55.8,49.4,29.87,ENE,58,0.0,0.0,79,0.00,,,0.00,VWS V14.01,2013-08-27 11:00:00,
2013-08-27 05:05:00,55.8,49.4,29.87,ENE,58,0.0,0.0,79,0.00,,,0.00,VWS V14.01,2013-08-27 11:05:00,
2013-08-27 05:10:00,56.1,50.0,29.87,NNE,18,0.0,0.0,80,0.00,,,0.00,VWS V14.01,2013-08-27 11:10:00,
2013-08-27 05:15:00,56.5,49.7,29.87,NNE,18,0.0,0.0,78,0.00,,,0.00,VWS V14.01,2013-08-27 11:15:00,
2013-08-27 05:20:00,56.7,49.6,29.88,NNE,18,0.0,0.0,77,0.00,,,0.00,VWS V14.01,2013-08-27 11:20:00,
2013-08-27 05:25:00,57.0,50.2,29.88,South,184,0.0,0.0,78,0.00,,,0.00,VWS V14.01,2013-08-27 11:25:00,
2013-08-27 05:30:00,57.2,50.8,29.88,South,185,0.0,0.0,79,0.00,,,0.00,VWS V14.01,2013-08-27 11:30:00,
2013-08-27 05:35:00,57.1,51.0,29.88,South,185,0.0,0.0,80,0.00,,,0.00,VWS V14.01,2013-08-27 11:35:00,
2013-08-27 05:40:00,57.4,51.0,29.88,SE,128,0.0,0.0,79,0.00,,,0.00,VWS V14.01,2013-08-27 11:40:00,
2013-08-27 05:45:00,57.9,51.1,29.88,ENE,66,0.0,0.0,78,0.00,,,0.00,VWS V14.01,2013-08-27 11:45:00,
2013-08-27 05:50:00,58.2,51.0,29.88,ENE,66,0.0,0.0,77,0.00,,,0.00,VWS V14.01,2013-08-27 11:50:00,
2013-08-27 05:55:00,58.0,50.8,29.88,ENE,65,0.0,0.0,77,0.00,,,0.00,VWS V14.01,2013-08-27 11:55:00,
2013-08-27 06:00:00,57.8,51.0,29.88,ENE,65,0.0,0.0,78,0.00,,,0.00,VWS V14.01,2013-08-27 12:00:00,
2013-08-27 06:05:00,57.7,50.5,29.88,ENE,58,0.0,0.0,77,0.00,,,0.00,VWS V14.01,2013-08-27 12:05:00,
2013-08-27 06:10:00,57.5,50.7,29.89,ENE,58,0.0,0.0,78,0.00,,,0.00,VWS V14.01,2013-08-27 12:10:00,
2013-08-27 06:15:00,57.1,50.3,29.89,ENE,58,0.0,0.0,78,0.00,,,0.00,VWS V14.01,2013-08-27 12:15:00,
2013-08-27 06:20:00,56.7,49.9,29.89,NE,56,0.0,0.0,78,0.00,,,0.00,VWS V14.01,2013-08-27 12:20:00,
2013-08-27 06:25:00,56.3,49.9,29.89,NE,53,0.0,0.0,79,0.00,,,0.00,VWS V14.01,2013-08-27 12:25:00,
2013-08-27 06:30:00,55.9,49.8,29.89,NE,53,0.0,0.0,80,0.00,,,0.00,VWS V14.01,2013-08-27 12:30:00,
2013-08-27 06:35:00,55.8,50.1,29.89,NE,52,0.0,0.0,81,0.00,,,0.00,VWS V14.01,2013-08-27 12:35:00,
2013-08-27 06:40:00,55.7,50.0,29.89,NE,53,0.0,0.0,81,0.00,,,0.00,VWS V14.01,2013-08-27 12:40:00,
2013-08-27 06:45:00,55.7,50.3,29.89,NE,53,0.0,0.0,82,0.00,,,0.00,VWS V14.01,2013-08-27 12:45:00,
2013-08-27 06:50:00,55.9,50.2,29.89,NE,53,0.0,0.0,81,0.00,,,0.00,VWS V14.01,2013-08-27 12:50:00,
2013-08-27 06:55:00,55.8,50.1,29.89,NE,53,0.0,0.0,81,0.00,,,0.00,VWS V14.01,2013-08-27 12:55:00,
2013-08-27 07:00:00,55.9,50.2,29.89,NE,53,0.0,0.0,81,0.00,,,0.00,VWS V14.01,2013-08-27 13:00:00,
2013-08-27 07:05:00,55.9,50.2,29.89,NE,52,0.0,0.0,81,0.00,,,0.00,VWS V14.01,2013-08-27 13:05:00,
2013-08-27 07:10:00,55.9,50.2,29.89,NE,53,0.0,0.0,81,0.00,,,0.00,VWS V14.01,2013-08-27 13:10:00,
2013-08-27 07:15:00,56.0,50.3,29.90,NE,53,0.0,0.0,81,0.00,,,0.00,VWS V14.01,2013-08-27 13:15:00,
2013-08-27 07:20:00,56.2,50.5,29.90,ESE,104,0.0,0.0,81,0.00,,,0.00,VWS V14.01,2013-08-27 13:20:00,
2013-08-27 07:25:00,56.7,50.9,29.90,SE,139,0.0,1.0,81,0.00,,,0.00,VWS V14.01,2013-08-27 13:25:00,
2013-08-27 07:30:00,57.9,52.1,29.90,SE,125,0.0,4.0,81,0.00,,,0.00,VWS V14.01,2013-08-27 13:30:00,
2013-08-27 07:35:00,58.8,53.0,29.90,SSE,148,0.0,4.0,81,0.00,,,0.00,VWS V14.01,2013-08-27 13:35:00,
2013-08-27 07:40:00,59.4,53.6,29.90,ESE,122,0.0,4.0,81,0.00,,,0.00,VWS V14.01,2013-08-27 13:40:00,
2013-08-27 07:45:00,59.9,54.1,29.90,SE,140,0.0,4.0,81,0.00,,,0.00,VWS V14.01,2013-08-27 13:45:00,
2013-08-27 07:50:00,60.3,54.5,29.90,East,80,0.0,4.0,81,0.00,,,0.00,VWS V14.01,2013-08-27 13:50:00,
2013-08-27 07:55:00,60.6,54.4,29.90,East,94,0.0,4.0,80,0.00,,,0.00,VWS V14.01,2013-08-27 13:55:00,
2013-08-27 08:00:00,60.9,54.3,29.90,East,95,0.0,0.0,79,0.00,,,0.00,VWS V14.01,2013-08-27 14:00:00,
2013-08-27 08:05:00,61.2,54.6,29.90,ESE,111,0.0,0.0,79,0.00,,,0.00,VWS V14.01,2013-08-27 14:05:00,
2013-08-27 08:10:00,61.4,54.1,29.90,ESE,115,0.0,0.0,77,0.00,,,0.00,VWS V14.01,2013-08-27 14:10:00,
2013-08-27 08:15:00,61.7,54.4,29.90,SSE,148,0.0,0.0,77,0.00,,,0.00,VWS V14.01,2013-08-27 14:15:00,
2013-08-27 08:20:00,62.1,54.5,29.90,ESE,102,0.0,0.0,76,0.00,,,0.00,VWS V14.01,2013-08-27 14:20:00,
2013-08-27 08:25:00,62.3,54.3,29.90,ESE,109,0.0,0.0,75,0.00,,,0.00,VWS V14.01,2013-08-27 14:25:00,
2013-08-27 08:30:00,62.6,54.9,29.90,SE,125,0.0,0.0,76,0.00,,,0.00,VWS V14.01,2013-08-27 14:30:00,
2013-08-27 08:35:00,63.0,54.6,29.90,East,87,0.0,0.0,74,0.00,,,0.00,VWS V14.01,2013-08-27 14:35:00,
2013-08-27 08:40:00,63.4,53.8,29.90,ESE,110,0.0,0.0,71,0.00,,,0.00,VWS V14.01,2013-08-27 14:40:00,
2013-08-27 08:45:00,63.7,54.5,29.90,ESE,122,0.0,0.0,72,0.00,,,0.00,VWS V14.01,2013-08-27 14:45:00,
2013-08-27 08:50:00,64.0,54.0,29.89,ESE,120,0.0,0.0,70,0.00,,,0.00,VWS V14.01,2013-08-27 14:50:00,
2013-08-27 08:55:00,64.3,53.5,29.89,SSE,148,0.0,0.0,68,0.00,,,0.00,VWS V14.01,2013-08-27 14:55:00,
2013-08-27 09:00:00,64.7,53.9,29.90,SE,134,0.0,0.0,68,0.00,,,0.00,VWS V14.01,2013-08-27 15:00:00,
2013-08-27 09:05:00,65.2,54.4,29.90,ESE,120,0.0,0.0,68,0.00,,,0.00,VWS V14.01,2013-08-27 15:05:00,
2013-08-27 09:10:00,65.6,54.0,29.90,SE,128,0.0,0.0,66,0.00,,,0.00,VWS V14.01,2013-08-27 15:10:00,
2013-08-27 09:15:00,66.0,55.5,29.89,SE,129,1.0,4.0,69,0.00,,,0.00,VWS V14.01,2013-08-27 15:15:00,
2013-08-27 09:20:00,65.8,55.0,29.89,ESE,123,2.0,5.0,68,0.00,,,0.00,VWS V14.01,2013-08-27 15:20:00,
2013-08-27 09:25:00,65.9,56.2,29.89,SE,145,1.0,5.0,71,0.00,,,0.00,VWS V14.01,2013-08-27 15:25:00,
2013-08-27 09:30:00,66.0,56.3,29.89,SSE,150,0.0,5.0,71,0.00,,,0.00,VWS V14.01,2013-08-27 15:30:00,
2013-08-27 09:35:00,66.4,55.9,29.89,SSE,148,0.0,5.0,69,0.00,,,0.00,VWS V14.01,2013-08-27 15:35:00,
2013-08-27 09:40:00,66.8,56.3,29.89,SE,143,0.0,5.0,69,0.00,,,0.00,VWS V14.01,2013-08-27 15:40:00,
2013-08-27 09:45:00,67.5,55.3,29.89,SSE,163,0.0,5.0,65,0.00,,,0.00,VWS V14.01,2013-08-27 15:45:00,
2013-08-27 09:50:00,67.6,54.6,29.89,SE,143,0.0,5.0,63,0.00,,,0.00,VWS V14.01,2013-08-27 15:50:00,
2013-08-27 09:55:00,67.5,54.9,29.89,South,170,3.0,6.0,64,0.00,,,0.00,VWS V14.01,2013-08-27 15:55:00,
2013-08-27 10:00:00,67.3,53.8,29.89,SSE,150,5.0,6.0,62,0.00,,,0.00,VWS V14.01,2013-08-27 16:00:00,
2013-08-27 10:05:00,67.2,54.6,29.89,SE,145,2.0,6.0,64,0.00,,,0.00,VWS V14.01,2013-08-27 16:05:00,
2013-08-27 10:10:00,67.3,54.7,29.89,SSE,150,3.0,6.0,64,0.00,,,0.00,VWS V14.01,2013-08-27 16:10:00,
2013-08-27 10:15:00,67.7,53.3,29.88,SSE,161,5.0,6.0,60,0.00,,,0.00,VWS V14.01,2013-08-27 16:15:00,
2013-08-27 10:20:00,67.9,53.5,29.89,South,170,4.0,7.0,60,0.00,,,0.00,VWS V14.01,2013-08-27 16:20:00,
2013-08-27 10:25:00,68.2,53.3,29.88,South,169,4.0,7.0,59,0.00,,,0.00,VWS V14.01,2013-08-27 16:25:00,
2013-08-27 10:30:00,68.7,53.3,29.88,SSE,163,4.0,6.0,58,0.00,,,0.00,VWS V14.01,2013-08-27 16:30:00,
2013-08-27 10:35:00,69.1,53.7,29.88,SSE,166,4.0,6.0,58,0.00,,,0.00,VWS V14.01,2013-08-27 16:35:00,
2013-08-27 10:40:00,69.2,53.3,29.88,SSE,159,6.0,8.0,57,0.00,,,0.00,VWS V14.01,2013-08-27 16:40:00,
2013-08-27 10:45:00,69.2,53.8,29.88,SE,145,4.0,9.0,58,0.00,,,0.00,VWS V14.01,2013-08-27 16:45:00,
2013-08-27 10:50:00,69.3,53.9,29.88,SE,142,6.0,9.0,58,0.00,,,0.00,VWS V14.01,2013-08-27 16:50:00,
2013-08-27 10:55:00,69.3,53.4,29.87,SSE,153,3.0,9.0,57,0.00,,,0.00,VWS V14.01,2013-08-27 16:55:00,
2013-08-27 11:00:00,69.5,53.6,29.87,ESE,120,4.0,6.0,57,0.00,,,0.00,VWS V14.01,2013-08-27 17:00:00,
2013-08-27 11:05:00,69.8,54.4,29.87,SE,145,7.0,7.0,58,0.00,,,0.00,VWS V14.01,2013-08-27 17:05:00,
2013-08-27 11:10:00,70.0,55.0,29.87,SSE,159,2.0,7.0,59,0.00,,,0.00,VWS V14.01,2013-08-27 17:10:00,
2013-08-27 11:15:00,70.6,55.1,29.87,South,174,6.0,9.0,58,0.00,,,0.00,VWS V14.01,2013-08-27 17:15:00,
2013-08-27 11:20:00,70.7,55.2,29.86,SE,145,5.0,9.0,58,0.00,,,0.00,VWS V14.01,2013-08-27 17:20:00,
2013-08-27 11:25:00,70.9,53.4,29.86,SSE,150,1.0,9.0,54,0.00,,,0.00,VWS V14.01,2013-08-27 17:25:00,
2013-08-27 11:30:00,71.4,54.9,29.86,SE,139,0.0,5.0,56,0.00,,,0.00,VWS V14.01,2013-08-27 17:30:00,
2013-08-27 11:35:00,71.9,54.9,29.86,SSE,150,4.0,6.0,55,0.00,,,0.00,VWS V14.01,2013-08-27 17:35:00,
2013-08-27 11:40:00,72.4,55.8,29.86,South,172,5.0,6.0,56,0.00,,,0.00,VWS V14.01,2013-08-27 17:40:00,
2013-08-27 11:45:00,72.8,55.7,29.86,SE,145,5.0,7.0,55,0.00,,,0.00,VWS V14.01,2013-08-27 17:45:00,
2013-08-27 11:50:00,73.1,55.5,29.86,SSE,148,5.0,7.0,54,0.00,,,0.00,VWS V14.01,2013-08-27 17:50:00,
2013-08-27 11:55:00,73.4,56.3,29.86,SSE,168,5.0,7.0,55,0.00,,,0.00,VWS V14.01,2013-08-27 17:55:00,
2013-08-27 12:00:00,73.5,55.9,29.86,SSE,158,2.0,8.0,54,0.00,,,0.00,VWS V14.01,2013-08-27 18:00:00,
2013-08-27 12:05:00,73.7,54.5,29.85,SE,132,0.0,8.0,51,0.00,,,0.00,VWS V14.01,2013-08-27 18:05:00,
2013-08-27 12:10:00,73.9,54.7,29.85,SSE,150,3.0,8.0,51,0.00,,,0.00,VWS V14.01,2013-08-27 18:10:00,
2013-08-27 12:15:00,74.2,56.5,29.85,SSE,160,0.0,8.0,54,0.00,,,0.00,VWS V14.01,2013-08-27 18:15:00,
2013-08-27 12:20:00,75.0,56.7,29.84,SE,139,0.0,8.0,53,0.00,,,0.00,VWS V14.01,2013-08-27 18:20:00,
2013-08-27 12:25:00,76.5,55.9,29.84,South,177,0.0,8.0,49,0.00,,,0.00,VWS V14.01,2013-08-27 18:25:00,
2013-08-27 12:30:00,77.2,54.8,29.83,SE,145,0.0,0.0,46,0.00,,,0.00,VWS V14.01,2013-08-27 18:30:00,
2013-08-27 12:35:00,77.4,55.0,29.83,SE,145,0.0,4.0,46,0.00,,,0.00,VWS V14.01,2013-08-27 18:35:00,
2013-08-27 12:40:00,77.4,56.8,29.83,SSE,150,0.0,4.0,49,0.00,,,0.00,VWS V14.01,2013-08-27 18:40:00,
2013-08-27 12:45:00,77.5,55.7,29.82,SSE,155,4.0,4.0,47,0.00,,,0.00,VWS V14.01,2013-08-27 18:45:00,
2013-08-27 12:50:00,77.2,55.4,29.82,SSE,148,3.0,5.0,47,0.00,,,0.00,VWS V14.01,2013-08-27 18:50:00,
2013-08-27 12:55:00,77.9,54.9,29.82,SE,135,4.0,6.0,45,0.00,,,0.00,VWS V14.01,2013-08-27 18:55:00,
2013-08-27 13:00:00,78.6,54.9,29.82,SE,145,0.0,6.0,44,0.00,,,0.00,VWS V14.01,2013-08-27 19:00:00,
2013-08-27 13:05:00,78.5,54.8,29.81,SE,125,0.0,6.0,44,0.00,,,0.00,VWS V14.01,2013-08-27 19:05:00,
2013-08-27 13:10:00,78.8,55.7,29.81,SE,132,0.0,6.0,45,0.00,,,0.00,VWS V14.01,2013-08-27 19:10:00,
2013-08-27 13:15:00,79.3,55.5,29.81,SE,129,0.0,6.0,44,0.00,,,0.00,VWS V14.01,2013-08-27 19:15:00,
2013-08-27 13:20:00,79.8,56.6,29.80,SSE,150,1.0,6.0,45,0.00,,,0.00,VWS V14.01,2013-08-27 19:20:00,
2013-08-27 13:24:00,79.7,57.7,29.80,SE,131,0.0,6.0,47,0.00,,,0.00,VWS V14.01,2013-08-27 19:24:00,
2013-08-27 13:29:00,80.5,59.0,29.80,SE,128,0.0,0.0,48,0.00,,,0.00,VWS V14.01,2013-08-27 19:29:00,
2013-08-27 13:34:00,81.7,54.4,29.80,SE,140,1.0,6.0,39,0.00,,,0.00,VWS V14.01,2013-08-27 19:34:00,
2013-08-27 13:39:00,82.2,54.8,29.79,SSE,153,0.0,6.0,39,0.00,,,0.00,VWS V14.01,2013-08-27 19:39:00,
2013-08-27 13:44:00,83.0,56.2,29.79,SSE,159,0.0,6.0,40,0.00,,,0.00,VWS V14.01,2013-08-27 19:44:00,
2013-08-27 13:49:00,82.6,55.9,29.79,SE,139,0.0,6.0,40,0.00,,,0.00,VWS V14.01,2013-08-27 19:49:00,
2013-08-27 13:54:00,82.1,54.7,29.79,SSE,163,0.0,6.0,39,0.00,,,0.00,VWS V14.01,2013-08-27 19:54:00,
2013-08-27 13:59:00,81.8,57.8,29.79,SE,138,0.0,3.0,44,0.00,,,0.00,VWS V14.01,2013-08-27 19:59:00,
2013-08-27 14:04:00,82.1,58.0,29.79,South,169,3.0,6.0,44,0.00,,,0.00,VWS V14.01,2013-08-27 20:04:00,
2013-08-27 14:09:00,81.8,56.5,29.78,SE,134,3.0,6.0,42,0.00,,,0.00,VWS V14.01,2013-08-27 20:09:00,
2013-08-27 14:14:00,81.7,57.0,29.78,SE,129,0.0,6.0,43,0.00,,,0.00,VWS V14.01,2013-08-27 20:14:00,
2013-08-27 14:19:00,82.6,57.2,29.78,SE,142,0.0,6.0,42,0.00,,,0.00,VWS V14.01,2013-08-27 20:19:00,
2013-08-27 14:24:00,81.9,56.6,29.78,SSE,160,0.0,6.0,42,0.00,,,0.00,VWS V14.01,2013-08-27 20:24:00,
2013-08-27 14:29:00,82.0,56.7,29.77,SE,146,3.0,5.0,42,0.00,,,0.00,VWS V14.01,2013-08-27 20:29:00,
2013-08-27 14:34:00,82.5,57.8,29.77,SE,142,0.0,6.0,43,0.00,,,0.00,VWS V14.01,2013-08-27 20:34:00,
2013-08-27 14:39:00,82.9,57.5,29.77,SE,135,2.0,6.0,42,0.00,,,0.00,VWS V14.01,2013-08-27 20:39:00,
2013-08-27 14:44:00,83.0,56.9,29.77,SE,142,4.0,7.0,41,0.00,,,0.00,VWS V14.01,2013-08-27 20:44:00,
2013-08-27 14:49:00,82.8,58.0,29.76,SSE,157,3.0,7.0,43,0.00,,,0.00,VWS V14.01,2013-08-27 20:49:00,
2013-08-27 14:54:00,82.8,61.1,29.76,South,169,2.0,7.0,48,0.00,,,0.00,VWS V14.01,2013-08-27 20:54:00,
2013-08-27 14:59:00,82.3,60.1,29.76,SSE,148,0.0,5.0,47,0.00,,,0.00,VWS V14.01,2013-08-27 20:59:00,
2013-08-27 15:04:00,81.9,58.5,29.76,SSE,160,0.0,5.0,45,0.00,,,0.00,VWS V14.01,2013-08-27 21:04:00,
2013-08-27 15:09:00,82.3,58.2,29.76,SE,138,4.0,6.0,44,0.00,,,0.00,VWS V14.01,2013-08-27 21:09:00,
2013-08-27 15:14:00,82.2,58.1,29.75,SE,138,0.0,6.0,44,0.00,,,0.00,VWS V14.01,2013-08-27 21:14:00,
2013-08-27 15:19:00,82.2,56.8,29.75,ESE,123,1.0,6.0,42,0.00,,,0.00,VWS V14.01,2013-08-27 21:19:00,
2013-08-27 15:24:00,82.3,58.2,29.75,SSE,158,0.0,6.0,44,0.00,,,0.00,VWS V14.01,2013-08-27 21:24:00,
2013-08-27 15:29:00,82.1,57.4,29.75,South,172,0.0,2.0,43,0.00,,,0.00,VWS V14.01,2013-08-27 21:29:00,
2013-08-27 15:34:00,82.1,58.7,29.75,SSE,153,0.0,2.0,45,0.00,,,0.00,VWS V14.01,2013-08-27 21:34:00,
2013-08-27 15:39:00,81.9,60.3,29.75,SSE,153,0.0,2.0,48,0.00,,,0.00,VWS V14.01,2013-08-27 21:39:00,
2013-08-27 15:44:00,81.4,58.7,29.75,SE,145,1.0,2.0,46,0.00,,,0.00,VWS V14.01,2013-08-27 21:44:00,
2013-08-27 15:49:00,81.3,61.5,29.74,SSE,148,0.0,2.0,51,0.00,,,0.00,VWS V14.01,2013-08-27 21:49:00,
2013-08-27 15:50:00,81.4,61.5,29.74,SE,145,0.0,2.0,51,0.00,,,0.00,VWS V14.01,2013-08-27 21:50:00,
2013-08-27 15:55:00,81.7,61.3,29.74,SE,140,0.0,2.0,50,0.00,,,0.00,VWS V14.01,2013-08-27 21:55:00,
2013-08-27 16:00:00,81.7,58.9,29.74,South,183,0.0,0.0,46,0.00,,,0.00,VWS V14.01,2013-08-27 22:00:00,
2013-08-27 16:05:00,81.9,60.3,29.75,SSE,159,0.0,0.0,48,0.00,,,0.00,VWS V14.01,2013-08-27 22:05:00,
2013-08-27 16:10:00,81.9,57.2,29.75,SE,125,0.0,0.0,43,0.00,,,0.00,VWS V14.01,2013-08-27 22:10:00,
2013-08-27 16:15:00,82.0,56.7,29.75,SE,135,0.0,0.0,42,0.00,,,0.00,VWS V14.01,2013-08-27 22:15:00,
2013-08-27 16:20:00,81.8,57.8,29.75,SE,142,0.0,0.0,44,0.00,,,0.00,VWS V14.01,2013-08-27 22:20:00,
2013-08-27 16:25:00,81.5,54.2,29.75,South,174,0.0,0.0,39,0.00,,,0.00,VWS V14.01,2013-08-27 22:25:00,
2013-08-27 16:30:00,81.9,51.6,29.75,SSE,150,0.0,0.0,35,0.00,,,0.00,VWS V14.01,2013-08-27 22:30:00,
2013-08-27 16:35:00,82.3,52.7,29.75,South,172,7.0,10.0,36,0.00,,,0.00,VWS V14.01,2013-08-27 22:35:00,
2013-08-27 16:40:00,82.1,45.8,29.76,SSE,166,9.0,19.0,28,0.00,,,0.00,VWS V14.01,2013-08-27 22:40:00,
2013-08-27 16:45:00,82.1,44.8,29.79,SSE,153,3.0,34.0,27,0.00,,,0.00,VWS V14.01,2013-08-27 22:45:00,
2013-08-27 16:50:00,82.1,44.8,29.77,West,272,0.0,34.0,27,0.00,,,0.00,VWS V14.01,2013-08-27 22:50:00,
2013-08-27 16:55:00,82.4,46.1,29.76,East,98,4.0,34.0,28,0.00,,,0.00,VWS V14.01,2013-08-27 22:55:00,
2013-08-27 17:00:00,82.9,46.5,29.75,ENE,65,0.0,4.0,28,0.00,,,0.00,VWS V14.01,2013-08-27 23:00:00,
2013-08-27 17:05:00,84.2,43.5,29.75,ENE,58,1.0,7.0,24,0.00,,,0.00,VWS V14.01,2013-08-27 23:05:00,
2013-08-27 17:10:00,85.5,45.7,29.74,SE,135,0.0,7.0,25,0.00,,,0.00,VWS V14.01,2013-08-27 23:10:00,
2013-08-27 17:15:00,86.5,45.5,29.74,SE,142,0.0,7.0,24,0.00,,,0.00,VWS V14.01,2013-08-27 23:15:00,
2013-08-27 17:20:00,87.0,44.8,29.74,SSE,160,0.0,7.0,23,0.00,,,0.00,VWS V14.01,2013-08-27 23:20:00,
2013-08-27 17:25:00,87.7,43.0,29.74,WSW,248,0.0,7.0,21,0.00,,,0.00,VWS V14.01,2013-08-27 23:25:00,
2013-08-27 17:30:00,88.2,43.4,29.74,SSE,150,0.0,0.0,21,0.00,,,0.00,VWS V14.01,2013-08-27 23:30:00,
2013-08-27 17:35:00,88.4,42.3,29.74,SSE,153,0.0,0.0,20,0.00,,,0.00,VWS V14.01,2013-08-27 23:35:00,
2013-08-27 17:40:00,89.1,42.8,29.74,SSE,154,0.0,0.0,20,0.00,,,0.00,VWS V14.01,2013-08-27 23:40:00,
2013-08-27 17:45:00,89.5,41.8,29.74,SSE,153,0.0,0.0,19,0.00,,,0.00,VWS V14.01,2013-08-27 23:45:00,
2013-08-27 17:50:00,90.1,43.7,29.73,SSE,155,0.0,0.0,20,0.00,,,0.00,VWS V14.01,2013-08-27 23:50:00,
2013-08-27 17:55:00,89.8,42.1,29.73,SSE,155,0.0,0.0,19,0.00,,,0.00,VWS V14.01,2013-08-27 23:55:00,
2013-08-27 18:00:00,90.1,42.3,29.73,SSE,154,0.0,0.0,19,0.00,,,0.00,VWS V14.01,2013-08-28 00:00:00,
2013-08-27 18:05:00,89.2,44.2,29.73,SE,145,1.0,5.0,21,0.00,,,0.00,VWS V14.01,2013-08-28 00:05:00,
2013-08-27 18:10:00,85.8,53.4,29.74,SSE,160,0.0,5.0,33,0.00,,,0.00,VWS V14.01,2013-08-28 00:10:00,
2013-08-27 18:15:00,84.9,51.8,29.74,SE,132,0.0,5.0,32,0.00,,,0.00,VWS V14.01,2013-08-28 00:15:00,
2013-08-27 18:20:00,84.5,52.3,29.73,SE,142,0.0,5.0,33,0.00,,,0.00,VWS V14.01,2013-08-28 00:20:00,
2013-08-27 18:25:00,84.7,52.4,29.73,SSE,148,0.0,5.0,33,0.00,,,0.00,VWS V14.01,2013-08-28 00:25:00,
2013-08-27 18:30:00,85.4,50.5,29.73,SSE,148,0.0,0.0,30,0.00,,,0.00,VWS V14.01,2013-08-28 00:30:00,
2013-08-27 18:35:00,86.1,49.2,29.73,SSE,160,0.0,0.0,28,0.00,,,0.00,VWS V14.01,2013-08-28 00:35:00,
2013-08-27 18:40:00,86.0,48.2,29.73,SSE,165,0.0,0.0,27,0.00,,,0.00,VWS V14.01,2013-08-28 00:40:00,
2013-08-27 18:45:00,86.0,47.2,29.73,SSE,148,0.0,0.0,26,0.00,,,0.00,VWS V14.01,2013-08-28 00:45:00,
2013-08-27 18:50:00,85.9,49.0,29.73,SE,145,0.0,0.0,28,0.00,,,0.00,VWS V14.01,2013-08-28 00:50:00,
2013-08-27 18:55:00,85.5,49.7,29.73,SE,145,0.0,0.0,29,0.00,,,0.00,VWS V14.01,2013-08-28 00:55:00,
2013-08-27 19:00:00,84.6,50.7,29.72,SSE,164,0.0,0.0,31,0.00,,,0.00,VWS V14.01,2013-08-28 01:00:00,
2013-08-27 19:05:00,83.5,48.8,29.72,SW,225,0.0,0.0,30,0.00,,,0.00,VWS V14.01,2013-08-28 01:05:00,
2013-08-27 19:10:00,82.8,47.3,29.72,WSW,245,0.0,0.0,29,0.00,,,0.00,VWS V14.01,2013-08-28 01:10:00,
2013-08-27 19:15:00,82.3,47.8,29.72,WSW,245,0.0,0.0,30,0.00,,,0.00,VWS V14.01,2013-08-28 01:15:00,
2013-08-27 19:20:00,81.2,46.8,29.72,WSW,245,0.0,0.0,30,0.00,,,0.00,VWS V14.01,2013-08-28 01:20:00,
2013-08-27 19:25:00,80.6,47.2,29.72,WSW,245,0.0,0.0,31,0.00,,,0.00,VWS V14.01,2013-08-28 01:25:00,
2013-08-27 19:30:00,80.2,48.5,29.72,WSW,245,0.0,0.0,33,0.00,,,0.00,VWS V14.01,2013-08-28 01:30:00,
2013-08-27 19:35:00,79.8,51.2,29.72,WSW,245,0.0,0.0,37,0.00,,,0.00,VWS V14.01,2013-08-28 01:35:00,
2013-08-27 19:40:00,79.4,51.6,29.72,WSW,245,0.0,0.0,38,0.00,,,0.00,VWS V14.01,2013-08-28 01:40:00,
2013-08-27 19:45:00,78.9,51.9,29.72,WSW,245,0.0,0.0,39,0.00,,,0.00,VWS V14.01,2013-08-28 01:45:00,
2013-08-27 19:50:00,78.6,51.6,29.72,WSW,245,0.0,0.0,39,0.00,,,0.00,VWS V14.01,2013-08-28 01:50:00,
2013-08-27 19:55:00,78.3,50.6,29.71,WSW,245,0.0,0.0,38,0.00,,,0.00,VWS V14.01,2013-08-28 01:55:00,
2013-08-27 20:00:00,78.0,51.1,29.72,WSW,245,0.0,0.0,39,0.00,,,0.00,VWS V14.01,2013-08-28 02:00:00,
2013-08-27 20:05:00,77.5,50.6,29.72,WSW,245,0.0,0.0,39,0.00,,,0.00,VWS V14.01,2013-08-28 02:05:00,
2013-08-27 20:10:00,77.1,50.3,29.72,WSW,244,0.0,0.0,39,0.00,,,0.00,VWS V14.01,2013-08-28 02:10:00,
2013-08-27 20:15:00,76.7,51.9,29.72,WSW,245,0.0,0.0,42,0.00,,,0.00,VWS V14.01,2013-08-28 02:15:00,
2013-08-27 20:20:00,76.2,53.3,29.72,SE,142,0.0,0.0,45,0.00,,,0.00,VWS V14.01,2013-08-28 02:20:00,
2013-08-27 20:25:00,75.5,58.2,29.72,SSE,148,0.0,1.0,55,0.00,,,0.00,VWS V14.01,2013-08-28 02:25:00,
2013-08-27 20:30:00,75.5,55.6,29.72,SSE,163,0.0,3.0,50,0.00,,,0.00,VWS V14.01,2013-08-28 02:30:00,
2013-08-27 20:35:00,75.4,61.0,29.72,SSE,155,0.0,3.0,61,0.00,,,0.00,VWS V14.01,2013-08-28 02:35:00,
2013-08-27 20:40:00,75.0,58.8,29.72,South,169,0.0,3.0,57,0.00,,,0.00,VWS V14.01,2013-08-28 02:40:00,
2013-08-27 20:45:00,74.6,55.8,29.72,SSW,205,0.0,3.0,52,0.00,,,0.00,VWS V14.01,2013-08-28 02:45:00,
2013-08-27 20:50:00,74.3,54.5,29.72,WSW,238,0.0,3.0,50,0.00,,,0.00,VWS V14.01,2013-08-28 02:50:00,
2013-08-27 20:55:00,73.8,52.9,29.72,WSW,238,0.0,3.0,48,0.00,,,0.00,VWS V14.01,2013-08-28 02:55:00,
2013-08-27 21:00:00,73.9,51.8,29.73,WSW,238,0.0,0.0,46,0.00,,,0.00,VWS V14.01,2013-08-28 03:00:00,
2013-08-27 21:05:00,73.5,50.9,29.73,WSW,238,0.0,0.0,45,0.00,,,0.00,VWS V14.01,2013-08-28 03:05:00,
2013-08-27 21:10:00,73.1,49.9,29.73,WSW,238,0.0,0.0,44,0.00,,,0.00,VWS V14.01,2013-08-28 03:10:00,
2013-08-27 21:15:00,72.8,49.6,29.73,WSW,238,0.0,0.0,44,0.00,,,0.00,VWS V14.01,2013-08-28 03:15:00,
2013-08-27 21:20:00,72.1,49.6,29.73,WSW,238,0.0,0.0,45,0.00,,,0.00,VWS V14.01,2013-08-28 03:20:00,
2013-08-27 21:25:00,71.2,48.8,29.74,WSW,238,0.0,0.0,45,0.00,,,0.00,VWS V14.01,2013-08-28 03:25:00,
2013-08-27 21:30:00,70.7,48.9,29.74,WSW,238,0.0,0.0,46,0.00,,,0.00,VWS V14.01,2013-08-28 03:30:00,
2013-08-27 21:35:00,70.3,49.1,29.74,WSW,238,0.0,0.0,47,0.00,,,0.00,VWS V14.01,2013-08-28 03:35:00,
2013-08-27 21:40:00,69.8,49.2,29.74,WSW,238,0.0,0.0,48,0.00,,,0.00,VWS V14.01,2013-08-28 03:40:00,
2013-08-27 21:45:00,69.7,49.7,29.74,WSW,238,0.0,0.0,49,0.00,,,0.00,VWS V14.01,2013-08-28 03:45:00,
2013-08-27 21:50:00,69.7,50.8,29.74,WSW,238,0.0,0.0,51,0.00,,,0.00,VWS V14.01,2013-08-28 03:50:00,
2013-08-27 21:55:00,69.7,50.8,29.74,WSW,238,0.0,0.0,51,0.00,,,0.00,VWS V14.01,2013-08-28 03:55:00,
2013-08-27 22:00:00,69.6,50.7,29.75,WSW,238,0.0,0.0,51,0.00,,,0.00,VWS V14.01,2013-08-28 04:00:00,
2013-08-27 22:01:00,69.6,50.7,29.75,WSW,238,0.0,0.0,51,0.00,,,0.00,VWS V14.01,2013-08-28 04:01:00,
2013-08-27 22:06:00,69.5,50.6,29.75,WSW,238,0.0,0.0,51,0.00,,,0.00,VWS V14.01,2013-08-28 04:06:00,
2013-08-27 22:11:00,69.1,49.7,29.75,WSW,237,0.0,0.0,50,0.00,,,0.00,VWS V14.01,2013-08-28 04:11:00,
2013-08-27 22:16:00,68.7,48.2,29.75,NW,314,0.0,0.0,48,0.00,,,0.00,VWS V14.01,2013-08-28 04:16:00,
2013-08-27 22:21:00,68.8,48.3,29.75,NW,314,0.0,0.0,48,0.00,,,0.00,VWS V14.01,2013-08-28 04:21:00,
2013-08-27 22:26:00,68.2,47.2,29.76,NW,315,0.0,0.0,47,0.00,,,0.00,VWS V14.01,2013-08-28 04:26:00,
2013-08-27 22:31:00,67.6,48.3,29.76,NW,314,0.0,0.0,50,0.00,,,0.00,VWS V14.01,2013-08-28 04:31:00,
2013-08-27 22:36:00,67.5,48.2,29.76,NW,314,0.0,0.0,50,0.00,,,0.00,VWS V14.01,2013-08-28 04:36:00,
2013-08-27 22:41:00,67.5,47.7,29.76,NW,314,0.0,0.0,49,0.00,,,0.00,VWS V14.01,2013-08-28 04:41:00,
2013-08-27 22:46:00,67.7,47.9,29.76,NW,314,0.0,0.0,49,0.00,,,0.00,VWS V14.01,2013-08-28 04:46:00,
2013-08-27 22:51:00,67.2,48.0,29.77,NW,314,0.0,0.0,50,0.00,,,0.00,VWS V14.01,2013-08-28 04:51:00,
2013-08-27 22:56:00,67.0,48.3,29.77,NW,314,0.0,0.0,51,0.00,,,0.00,VWS V14.01,2013-08-28 04:56:00,
2013-08-27 23:01:00,66.9,48.7,29.77,NW,314,0.0,0.0,52,0.00,,,0.00,VWS V14.01,2013-08-28 05:01:00,
2013-08-27 23:06:00,66.4,47.2,29.77,NW,314,0.0,0.0,50,0.00,,,0.00,VWS V14.01,2013-08-28 05:06:00,
2013-08-27 23:11:00,65.4,46.8,29.77,NNW,330,0.0,0.0,51,0.00,,,0.00,VWS V14.01,2013-08-28 05:11:00,
2013-08-27 23:16:00,65.0,47.5,29.77,NNW,333,0.0,0.0,53,0.00,,,0.00,VWS V14.01,2013-08-28 05:16:00,
2013-08-27 23:21:00,65.0,47.0,29.77,NNW,330,0.0,0.0,52,0.00,,,0.00,VWS V14.01,2013-08-28 05:21:00,
2013-08-27 23:26:00,65.3,46.2,29.77,WNW,302,0.0,0.0,50,0.00,,,0.00,VWS V14.01,2013-08-28 05:26:00,
2013-08-27 23:31:00,65.8,47.2,29.77,WNW,302,0.0,0.0,51,0.00,,,0.00,VWS V14.01,2013-08-28 05:31:00,
2013-08-27 23:36:00,65.5,45.8,29.77,NW,305,0.0,0.0,49,0.00,,,0.00,VWS V14.01,2013-08-28 05:36:00,
2013-08-27 23:41:00,64.5,45.5,29.77,NW,305,0.0,0.0,50,0.00,,,0.00,VWS V14.01,2013-08-28 05:41:00,
2013-08-27 23:46:00,64.1,45.1,29.78,NNW,343,0.0,0.0,50,0.00,,,0.00,VWS V14.01,2013-08-28 05:46:00,
2013-08-27 23:51:00,64.6,45.6,29.79,NW,324,0.0,0.0,50,0.00,,,0.00,VWS V14.01,2013-08-28 05:51:00,
2013-08-27 23:56:00,66.0,46.3,29.80,WNW,297,0.0,3.0,49,0.00,,,0.00,VWS V14.01,2013-08-28 05:56:00,